Regional Weather Roundup
Issued by NWS

Home | Current Version | Previous Version | Graphics & Text | Print | Product List | Glossary On
Versions: 1 2 3 4 5 6 7 8 9 10 11 12 13 14 15 16 17 18 19 20 21 22 23 24 25 26 27 28 29 30 31 32 33 34 35 36 37 38 39 40 41 42 43 44 45 46 47 48 49 50
000
ASUS44 KMEG 231100
RWRTN
TENNESSEE HOURLY STATE WEATHER ROUNDUP
NATIONAL WEATHER SERVICE MEMPHIS TN
600 AM CDT TUE SEP 23 2014

TNZ002-004-019-021-049-052-054-088>092-231200-
WEST TENNESSEE

CITY           SKY/WX    TMP DP  RH WIND       PRES   REMARKS
MEMPHIS INTL   CLEAR     56  47  71 NE5       30.22S
NWS MEMPHIS      N/A     54 N/A N/A MISG        N/A
JACKSON        CLEAR     47  44  90 CALM      30.23S
DYERSBURG      CLEAR     52  37  58 CALM      30.27R
PARIS          CLEAR     43  39  87 N6        30.25S
$$

TNZ008-025-027-028-033-062-065-066-231200-
NORTH MIDDLE TENNESSEE

CITY           SKY/WX    TMP DP  RH WIND       PRES   REMARKS
NASHVILLE      CLEAR     51  45  79 NE5       30.25R
CLARKSVILLE    CLEAR     46  43  89 CALM      30.25S
COOKEVILLE     CLEAR     39  39 100 CALM      30.24R
CROSSVILLE     CLEAR     48  44  86 E3        30.26R
$$

TNZ061-075-076-078-094-096-097-231200-
SOUTH MIDDLE TENNESSEE

CITY           SKY/WX    TMP DP  RH WIND       PRES   REMARKS
WINCHESTER     CLEAR     46  45  93 CALM      30.22R
$$

TNZ017-018-042-046-047-231200-
NORTHEAST TENNESSEE

CITY           SKY/WX    TMP DP  RH WIND       PRES   REMARKS
TRI CITIES     PTCLDY    44  41  89 E3        30.26R FOG
ELIZABETHTON   SUNNY     45  43  93 NE5       30.26R
$$

TNZ012-013-036-069-073-074-231200-
CENTRAL EAST TENNESSEE

CITY           SKY/WX    TMP DP  RH WIND       PRES   REMARKS
KNOXVILLE      PTCLDY    50  48  93 CALM      30.23R
OAK RIDGE      CLEAR     50  48  93 CALM      30.26R
GATLINBURG     SUNNY     45  45 100 CALM      30.24R
$$

TNZ083-085-099-231200-
SOUTHEAST TENNESSEE

CITY           SKY/WX    TMP DP  RH WIND       PRES   REMARKS
CHATTANOOGA    CLEAR     58  49  72 N10       30.22R
$$

SKY/WX REPORTED AS FAIR MEANS FEW OR NO CLOUDS BELOW
12 THOUSAND FEET.




USA.gov is the U.S. government's official web portal to all federal, state and local government web resources and services.